Weather History for Fergus Falls, MN

Change the Weather History Date:

Monday, June 10, 2013

  Actual Average Record
Temperature  
Mean Temperature 63 °F -  
Max Temperature 73 °F 74 °F 95 °F (1956)
Min Temperature 53 °F 52 °F 40 °F (1964)
Degree Days  
Heating Degree Days 2    
Growing Degree Days 13 (Base 50)    
Moisture  
Dew Point 57 °F    
Average Humidity 83    
Maximum Humidity 100    
Minimum Humidity 57    
Precipitation  
Precipitation 0.00 in - - ()
Sea Level Pressure  
Sea Level Pressure 29.83 in    
Wind  
Wind Speed 2 mph (SSE)    
Max Wind Speed 9 mph    
Max Gust Speed -    
Visibility 8 miles    
Events Fog    
Averages and records for this station are not official NWS values.
T = Trace of Precipitation, MM = Missing Value Source: NWS Daily Summary

Daily Weather History Graph

Daily Weather History Graph

Search for Another Location

Airport:

Trip Planner

Search our weather history database for the weather conditions in past years. The results will help you decide how hot, cold, wet, or windy it might be!

Date:

Astronomy

Jun. 10, 2013 Rise Set
Actual Time 5:32 AM CDT 9:16 PM CDT
Civil Twilight 4:53 AM CDT 9:54 PM CDT
Nautical Twilight 4:02 AM CDT 10:46 PM CDT
Astronomical Twilight 2:50 AM CDT 11:59 PM CDT
Moon 7:27 AM CDT (6/10) 10:36 PM CDT (6/10)
Length of Visible Light 17h 00m
Length of Day
15h 43m
Waxing Crescent, 4% of the Moon is Illuminated
Jun 10
Waxing Crescent
Jun 16
First Quarter
Jun 23
Full
Jun 29
Last Quarter
Jul 8
New

Hourly Weather History & Observations

Time (CDT) Temp. Dew Point Humidity Pressure Visibility Wind Dir Wind Speed Gust Speed Precip Events Conditions
12:13 AM 53.6 °F 53.6 °F 100% 29.86 in 1.2 mi Calm Calm - N/A   Overcast
12:33 AM 55.4 °F 55.4 °F 100% 29.85 in 4.0 mi Calm Calm - N/A   Overcast
12:53 AM 55.4 °F 55.4 °F 100% 29.85 in 7.0 mi Calm Calm - N/A   Overcast
1:13 AM 55.4 °F 55.4 °F 100% 29.85 in 3.0 mi Calm Calm - N/A   Mostly Cloudy
1:33 AM 55.4 °F 55.4 °F 100% 29.85 in 2.5 mi Calm Calm - N/A   Mostly Cloudy
1:53 AM 55.4 °F 55.4 °F 100% 29.85 in 0.5 mi Calm Calm - N/A Fog Fog
2:14 AM 53.6 °F 53.6 °F 100% 29.84 in 0.2 mi Calm Calm - N/A Fog Fog
2:33 AM 53.6 °F 53.6 °F 100% 29.84 in 0.2 mi Calm Calm - N/A Fog Fog
2:53 AM 55.4 °F 55.4 °F 100% 29.84 in 0.2 mi Calm Calm - N/A Fog Fog
3:14 AM 55.4 °F 55.4 °F 100% 29.83 in 1.5 mi SSE 3.5 mph - N/A   Overcast
3:33 AM 55.4 °F 55.4 °F 100% 29.82 in 3.0 mi Calm Calm - N/A   Overcast
3:53 AM 55.4 °F 55.4 °F 100% 29.83 in 3.0 mi Calm Calm - N/A   Overcast
4:14 AM 55.4 °F 55.4 °F 100% 29.83 in 4.0 mi Calm Calm - N/A   Overcast
4:33 AM 55.4 °F 55.4 °F 100% 29.84 in 2.5 mi Calm Calm - N/A   Overcast
4:53 AM 55.4 °F 55.4 °F 100% 29.84 in 3.0 mi Calm Calm - N/A   Overcast
5:14 AM 55.4 °F 55.4 °F 100% 29.83 in 4.0 mi Calm Calm - N/A   Overcast
5:33 AM 55.4 °F 55.4 °F 100% 29.84 in 4.0 mi Calm Calm - N/A   Overcast
5:53 AM 55.4 °F 55.4 °F 100% 29.86 in 7.0 mi Calm Calm - N/A   Overcast
6:13 AM 55.4 °F 55.4 °F 100% 29.86 in 7.0 mi West 3.5 mph - N/A   Overcast
6:33 AM 55.4 °F 55.4 °F 100% 29.86 in 4.0 mi Calm Calm - N/A   Overcast
6:53 AM 55.4 °F 55.4 °F 100% 29.86 in 10.0 mi Calm Calm - N/A   Overcast
7:13 AM 55.4 °F 55.4 °F 100% 29.86 in 10.0 mi Calm Calm - N/A   Overcast
7:33 AM 57.2 °F 55.4 °F 94% 29.86 in 10.0 mi Calm Calm - N/A   Overcast
7:53 AM 57.2 °F 55.4 °F 94% 29.86 in 10.0 mi Calm Calm - N/A   Overcast
8:13 AM 57.2 °F 55.4 °F 94% 29.86 in 10.0 mi Calm Calm - N/A   Overcast
8:33 AM 57.2 °F 55.4 °F 94% 29.86 in 10.0 mi Calm Calm - N/A   Overcast
8:53 AM 59.0 °F 57.2 °F 94% 29.86 in 10.0 mi SW 3.5 mph - N/A   Overcast
9:13 AM 59.0 °F 57.2 °F 94% 29.87 in 10.0 mi SW 3.5 mph - N/A   Overcast
9:33 AM 60.8 °F 55.4 °F 82% 29.87 in 10.0 mi SSW 3.5 mph - N/A   Overcast
9:53 AM 60.8 °F 57.2 °F 88% 29.87 in 10.0 mi South 4.6 mph - N/A   Overcast
10:13 AM 60.8 °F 57.2 °F 88% 29.86 in 10.0 mi South 3.5 mph - N/A   Overcast
10:33 AM 60.8 °F 57.2 °F 88% 29.85 in 10.0 mi Calm Calm - N/A   Mostly Cloudy
10:53 AM 60.8 °F 57.2 °F 88% 29.85 in 10.0 mi Calm Calm - N/A   Mostly Cloudy
11:13 AM 60.8 °F 55.4 °F 82% 29.84 in 10.0 mi SE 3.5 mph - N/A   Scattered Clouds
11:33 AM 62.6 °F 57.2 °F 82% 29.84 in 10.0 mi SE 4.6 mph - N/A   Scattered Clouds
11:53 AM 64.4 °F 57.2 °F 77% 29.84 in 10.0 mi SSE 4.6 mph - N/A   Scattered Clouds
12:13 PM 64.4 °F 57.2 °F 77% 29.84 in 10.0 mi South 6.9 mph - N/A   Scattered Clouds
12:33 PM 64.4 °F 57.2 °F 77% 29.84 in 10.0 mi South 8.1 mph - N/A   Scattered Clouds
12:53 PM 64.4 °F 57.2 °F 77% 29.84 in 10.0 mi SSE 4.6 mph - N/A   Mostly Cloudy
1:13 PM 64.4 °F 57.2 °F 77% 29.83 in 10.0 mi SSE 9.2 mph - N/A   Mostly Cloudy
1:33 PM 66.2 °F 57.2 °F 73% 29.84 in 10.0 mi South 9.2 mph - N/A   Mostly Cloudy
1:53 PM 66.2 °F 57.2 °F 73% 29.83 in 10.0 mi South 8.1 mph - N/A   Scattered Clouds
2:13 PM 66.2 °F 57.2 °F 73% 29.84 in 10.0 mi SSW 6.9 mph - N/A   Scattered Clouds
2:33 PM 68.0 °F 59.0 °F 73% 29.83 in 10.0 mi South 8.1 mph - N/A   Scattered Clouds
2:53 PM 69.8 °F 59.0 °F 68% 29.83 in 10.0 mi SSE 6.9 mph - N/A   Clear
3:13 PM 69.8 °F 57.2 °F 64% 29.83 in 10.0 mi SE 5.8 mph - N/A   Clear
3:33 PM 69.8 °F 57.2 °F 64% 29.83 in 10.0 mi SSE 5.8 mph - N/A   Clear
3:53 PM 69.8 °F 59.0 °F 68% 29.83 in 10.0 mi South 4.6 mph - N/A   Scattered Clouds
4:13 PM 71.6 °F 59.0 °F 64% 29.82 in 10.0 mi SE 5.8 mph - N/A   Scattered Clouds
4:33 PM 71.6 °F 57.2 °F 60% 29.82 in 10.0 mi SSE 5.8 mph - N/A   Scattered Clouds
4:53 PM 71.6 °F 57.2 °F 60% 29.81 in 10.0 mi SSE 9.2 mph - N/A   Scattered Clouds
5:13 PM 71.6 °F 57.2 °F 60% 29.81 in 10.0 mi SSE 6.9 mph - N/A   Scattered Clouds
5:33 PM 71.6 °F 57.2 °F 60% 29.80 in 10.0 mi SE 8.1 mph - N/A   Scattered Clouds
5:53 PM 73.4 °F 59.0 °F 61% 29.80 in 10.0 mi SE 8.1 mph - N/A   Mostly Cloudy
6:13 PM 73.4 °F 57.2 °F 57% 29.80 in 10.0 mi SE 9.2 mph - N/A   Scattered Clouds
6:33 PM 73.4 °F 57.2 °F 57% 29.80 in 10.0 mi SSE 9.2 mph - N/A   Clear
6:53 PM 73.4 °F 57.2 °F 57% 29.80 in 10.0 mi SSE 6.9 mph - N/A   Clear
7:13 PM 73.4 °F 59.0 °F 61% 29.80 in 10.0 mi SSE 8.1 mph - N/A   Clear
7:33 PM 73.4 °F 57.2 °F 57% 29.79 in 10.0 mi SE 5.8 mph - N/A   Clear
7:53 PM 73.4 °F 57.2 °F 57% 29.79 in 10.0 mi SSE 8.1 mph - N/A   Clear
8:13 PM 71.6 °F 59.0 °F 64% 29.79 in 10.0 mi SSE 5.8 mph - N/A   Clear
8:33 PM 71.6 °F 59.0 °F 64% 29.80 in 10.0 mi SSE 3.5 mph - N/A   Clear
8:53 PM 69.8 °F 60.8 °F 73% 29.80 in 10.0 mi SSE 3.5 mph - N/A   Clear
9:13 PM 69.8 °F 60.8 °F 73% 29.80 in 10.0 mi SSE 4.6 mph - N/A   Mostly Cloudy
9:34 PM 66.2 °F 60.8 °F 83% 29.80 in 10.0 mi SSE 8.1 mph - N/A   Scattered Clouds
9:53 PM 66.2 °F 60.8 °F 83% 29.80 in 10.0 mi SSE 8.1 mph - N/A   Clear
10:13 PM 66.2 °F 60.8 °F 83% 29.81 in 10.0 mi SSE 5.8 mph - N/A   Clear
10:34 PM 66.2 °F 59.0 °F 78% 29.80 in 10.0 mi SE 5.8 mph - N/A   Clear
10:53 PM 64.4 °F 59.0 °F 83% 29.80 in 10.0 mi SSE 6.9 mph - N/A   Clear
11:13 PM 64.4 °F 59.0 °F 83% 29.81 in 10.0 mi SSE 5.8 mph - N/A   Clear
11:33 PM 64.4 °F 59.0 °F 83% 29.80 in 10.0 mi SSE 6.9 mph - N/A   Clear
11:53 PM 62.6 °F 57.2 °F 82% 29.80 in 10.0 mi SSE 5.8 mph - N/A   Clear